This is the latest recevied weather packets stored in our database for station/object N3WXO-1. If no packets are shown the sender has not sent any weather packets the latest 10 day(s).
| Time | Temp. | Humidity | Pressure | Rain* | Wind** | Luminosity | Snow |
|---|---|---|---|---|---|---|---|
| 1777681822 | 12.22° C | 68% | 1011.9 hPa | 0 mm | - | 0 W/m² | - |
| 1777681523 | 12.22° C | 67% | 1011.9 hPa | 0 mm | - | 0 W/m² | - |
| 1777681220 | 12.78° C | 67% | 1011.7 hPa | 0 mm | - | 0 W/m² | - |
| 1777680935 | 12.78° C | 67% | 1011.7 hPa | 0 mm | - | 0 W/m² | - |
| 1777680630 | 12.78° C | 66% | 1011.6 hPa | 0 mm | - | 0 W/m² | - |
| 1777680323 | 12.78° C | 65% | 1011.5 hPa | 0 mm | - | 0 W/m² | - |
| 1777680019 | 13.33° C | 64% | 1011.5 hPa | 0 mm | - | 0 W/m² | - |
| 1777679735 | 13.33° C | 64% | 1011.7 hPa | 0 mm | - | 0 W/m² | - |
| 1777679432 | 13.33° C | 62% | 1011.5 hPa | 0 mm | - | 0 W/m² | - |
| 1777679129 | 13.89° C | 60% | 1011.4 hPa | 0 mm | - | 0 W/m² | - |
| 1777678825 | 13.89° C | 58% | 1011.2 hPa | 0 mm | - | 0 W/m² | - |
| 1777678519 | 14.44° C | 56% | 1011.1 hPa | 0 mm | - | 0 W/m² | - |
| 1777678236 | 14.44° C | 55% | 1011 hPa | 0 mm | - | 0 W/m² | - |
| 1777677931 | 15° C | 54% | 1010.9 hPa | 0 mm | - | 0 W/m² | - |
| 1777677622 | 15° C | 53% | 1010.8 hPa | 0 mm | - | 7 W/m² | - |
| 1777677317 | 15° C | 52% | 1010.5 hPa | 0 mm | - | 9 W/m² | - |
| 1777677018 | 15° C | 50% | 1010.4 hPa | 0 mm | - | 9 W/m² | - |
| 1777676731 | 15° C | 50% | 1010.5 hPa | 0 mm | - | 5 W/m² | - |
| 1777676424 | 15.56° C | 51% | 1010.4 hPa | 0 mm | - | 9 W/m² | - |
| 1777676120 | 15.56° C | 50% | 1010.4 hPa | 0 mm | - | 11 W/m² | - |
| 1777675818 | 15.56° C | 50% | 1010.3 hPa | 0 mm | - | 25 W/m² | - |
| 1777675533 | 15.56° C | 50% | 1010.3 hPa | 0 mm | - | 23 W/m² | - |
| 1777675230 | 15.56° C | 51% | 1010.3 hPa | 0 mm | - | 32 W/m² | - |
| 1777674927 | 15.56° C | 51% | 1010.3 hPa | 0 mm | - | 44 W/m² | - |
| 1777674619 | 15.56° C | 50% | 1010.3 hPa | 0 mm | - | 40 W/m² | - |
* Rain latest hour (hover to see other rain measurements)
** Current wind speed in m/s (hover to see current wind gust speed)